Regional Weather Roundup
Issued by NWS

Home | Current Version | Previous Version | Text Only | Print | Product List | Glossary Off
Versions: 1 2 3 4 5 6 7 8 9 10 11 12 13 14 15 16 17 18 19 20 21 22 23 24 25 26 27 28 29 30 31 32 33 34 35 36 37 38 39 40 41 42 43 44 45 46 47 48 49 50

000
ASUS45 KBOU 292310
RWRCO

WEATHER ROUNDUP FOR COLORADO
NATIONAL WEATHER SERVICE DENVER/BOULDER CO
500 PM MDT MON JUN 29 2015

NOTE: "FAIR" INDICATES FEW OR NO CLOUDS BELOW 12000 FEET WITH NO
SIGNIFICANT WEATHER AND/OR OBSTRUCTIONS TO VISIBILITY.

COZ001>005-013-030-031-300000-
...NORTHWEST COLORADO...

CITY           SKY/WX    TMP DP  RH WIND       PRES   REMARKS
CRAIG          SUNNY     93  33  12 VRB5      30.20F
HAYDEN         SUNNY     90  36  14 N9        30.23F
MEEKER         SUNNY     90  45  21 S10       30.22F
MOUNT WERNER   NOT AVBL
STEAMBOAT SPGS SUNNY     87  38  18 W5        30.26S
WALDEN         SUNNY     77  37  24 N5        30.39F
$$

COZ006>008-011-300000-
...WEST CENTRAL VALLEYS...

CITY           SKY/WX    TMP DP  RH WIND       PRES   REMARKS
GRAND JUNCTION MOSUNNY   98  43  15 W9        30.03F
MONTROSE       MOSUNNY   94  42  16 NW5       30.14F
EAGLE          MOSUNNY   90  32  12 NE14G21   30.21F
RIFLE          SUNNY     95  38  13 NW12G23   30.11F
DELTA          MOSUNNY  100  38  11 E6        30.07F
NUCLA          MOSUNNY   93  37  14 NW6       30.18F
$$

COZ017>023-064>068-300000-
...SOUTHWEST COLORADO...

CITY           SKY/WX    TMP DP  RH WIND       PRES   REMARKS
DURANGO        PTSUNNY   82  50  32 SW10      30.22S
CORTEZ         SUNNY     92  42  17 NW8       30.13F
PAGOSA SPRINGS PTSUNNY   78  44  30 SE5       30.32F
TELLURIDE      MOSUNNY   78  37  23 N3        30.46F
WOLF CREEK PAS NOT AVBL
$$

COZ009-010-012-014-032>034-037-058>063-300000-
...CENTRAL COLORADO...

CITY           SKY/WX    TMP DP  RH WIND       PRES   REMARKS
ASPEN          MOSUNNY   85  41  21 W9        30.31F
BUENA VISTA    CLOUDY    70  51  50 S9        30.38R
COPPER MTN     PTSUNNY   68  21  17 W16G22    30.72S
BERTHOUD PASS  FAIR      48  37  66 E18       30.79S THUNDER
COTTONWOOD PAS NOT AVBL
GUNNISON       MOSUNNY   84  37  18 NW13G18   30.31F
KREMMLING      MOSUNNY   82  28  14 N9        30.32S
LEADVILLE      MOSUNNY   75  30  19 N13G20    30.50S
MONARCH PASS   DRIZZLE   52  45  76 E15       30.80R
SALIDA         PTSUNNY   77  45  32 SE10      30.40S
SUNLIGHT       MOSUNNY   70  41  35 NW5       30.63F
WILKERSON PASS PTSUNNY   59  41  51 NE8G18    30.70R
$$

COZ069>075-300000-
...SAN LUIS VALLEY/SANGRE DE CRISTO MOUNTAINS...

CITY           SKY/WX    TMP DP  RH WIND       PRES   REMARKS
ALAMOSA        CLOUDY    83  44  25 E12G18    30.30F
LA VETA PASS   MOSUNNY   64  45  48 MISG      30.56F THUNDER
SAGUACHE       PTSUNNY   72  50  46 NW13      30.36S
$$

COZ035-036-038>040-300000-
...NORTHERN COLORADO FRONT RANGE...

CITY           SKY/WX    TMP DP  RH WIND       PRES   REMARKS
DENVER INTL AP PTSUNNY   82  48  30 N8        30.20F
DMNS CITY PARK   N/A     85  48  26 NE10      30.21S
AURORA         PTSUNNY   84  48  28 NE10      30.23F
FRONT RANGE AP PTSUNNY   86  48  26 N6        30.22S
ERIE MUNI ARPT PTSUNNY   86  46  24 N9        30.20S
BOULDER MUN AP PTSUNNY   84  50  30 NW5       30.21F
CENTENNIAL     MOSUNNY   82  46  28 NE7       30.25S
BROOMFIELD     PTSUNNY   82  46  28 NW8       30.24F
FORT COLLINS   CLOUDY    84  55  37 N8        30.18S
LONGMONT       NOT AVBL
$$

COZ041-046-047-076>085-087-088-300000-
...PIKES PEAK/PALMER DIVIDE AND SOUTHERN FOOTHILLS...

CITY           SKY/WX    TMP DP  RH WIND       PRES   REMARKS
COLO. SPRINGS  PTSUNNY   80  54  40 S9        30.28F
A. F. ACADEMY  MOSUNNY   81  47  30 E5        30.29S
ELLICOTT       MOSUNNY  N/A N/A N/A CALM      30.26F
FALCON         MOSUNNY   80  48  32 NE3       30.34R
FORT CARSON    MOSUNNY   81  55  40 S5        30.25F
LIMON          MOSUNNY   83  55  38 VRB5      30.21F
MONUMENT HILL  MOSUNNY   75  50  41 NE8       30.35S
TRINIDAD       SUNNY     84  50  30 SE9G16    30.22F
$$

COZ042>045-048>051-090-091-300000-
...NORTHEAST COLORADO...

CITY           SKY/WX    TMP DP  RH WIND       PRES   REMARKS
GREELEY ARPT   PTSUNNY   88  50  27 N18       30.17F
AKRON          PTSUNNY   83  53  35 E7        30.16S
BURLINGTON     MOSUNNY   87  48  25 VRB3      30.12F
WRAY           SUNNY     93  46  19 CALM      30.09S
STERLING       MOSUNNY   90  55  31 W6        30.10S
HOLYOKE        SUNNY     95  48  20 N8        30.09F
FORT MORGAN    MOSUNNY   85 -25   1 E5        30.15S
$$

COZ086-089-092>099-300000-
...SOUTHEAST COLORADO...

CITY           SKY/WX    TMP DP  RH WIND       PRES   REMARKS
PUEBLO         MOSUNNY   90  47  22 SE5       30.14F
LA JUNTA       SUNNY     87  50  27 CALM      30.12F
LAMAR          SUNNY     89  50  26 SW6       30.08F
SPRINGFIELD      N/A     86  44  23 VRB6      30.14S
$$


USA.gov is the U.S. government's official web portal to all federal, state and local government web resources and services.